Regional Weather Roundup
Issued by NWS

Home | Current Version | Previous Version | Text Only | Print | Product List | Glossary On
Versions: 1 2 3 4 5 6 7 8 9 10 11 12 13 14 15 16 17 18 19 20 21 22 23 24 25 26 27 28 29 30 31 32 33 34 35 36 37 38 39 40 41 42 43 44 45 46 47 48 49 50
000
ASUS43 KTOP 252308
RWRKS

WEATHER ROUNDUP FOR KANSAS
NATIONAL WEATHER SERVICE GOODLAND KS
600 PM CDT FRI JUL 25 2014

NOTE:  "FAIR" INDICATES FEW OR NO CLOUDS BELOW 12,000 FEET WITH NO
SIGNIFICANT WEATHER AND/OR OBSTRUCTIONS TO VISIBILITY.

KSZ001>006-013>018-027>032-041>047-260000-
NORTHWEST KANSAS

CITY           SKY/WX    TMP DP  RH WIND       PRES   REMARKS
GOODLAND       SUNNY     95  59  30 NE12      29.93F
HAYS           MOSUNNY   99  63  30 N9        29.78F HX 100
HILL CITY      MOSUNNY  100  65  31 N13       29.80F HX 103
RUSSELL        SUNNY    101  60  25 S5        29.74F HX 101
$$

KSZ061>065-074>080-084>089-260000-
SOUTHWEST KANSAS

CITY           SKY/WX    TMP DP  RH WIND       PRES   REMARKS
DODGE CITY     SUNNY    101  57  23 S10       29.83F HX 100
ELKHART          N/A    101  60  25 S8          N/A  HX 101
GARDEN CITY    SUNNY    101  58  24 SE10      29.84F HX 100
GREAT BEND     MOSUNNY  102  63  27 S20G25    29.73F HX 104
LIBERAL        SUNNY    106  54  17 S9        29.85F HX 104
PRATT          SUNNY     99  59  26 S16G24    29.81F HX  98
$$

KSZ066>073-081>083-090>101-260000-
SOUTHEAST KANSAS

CITY           SKY/WX    TMP DP  RH WIND       PRES   REMARKS
CHANUTE        SUNNY     91  73  55 S17G25    29.85S HX  99
COFFEYVILLE    SUNNY     92  74  55 S14       29.85S HX 101
HUTCHINSON     SUNNY    103  62  26 SW20G26   29.78S HX 105
MEDICINE LODGE   N/A    102  60  25 S16G29    29.78F HX 103
NEWTON         SUNNY    100  61  27 S21G31    29.83R HX 101
PARSONS        SUNNY     92  74  55 S12       29.87S HX 101
WICHITA INTL   MOSUNNY  101  58  24 S23G32    29.78F HX 100
WICHITA JABRA  SUNNY    102  61  25 S22G29    29.79S HX 103
WICHITA MCCONL SUNNY    100  60  27 S18G26    29.80S HX 100
WINFIELD       SUNNY     97  69  40 S21G28    29.83S HX 103
$$

KSZ007>012-019>026-033>040-048>060-102>105-260000-
NORTHEAST KANSAS

CITY           SKY/WX    TMP DP  RH WIND       PRES   REMARKS
CONCORDIA      MOSUNNY  101  64  29 VRB7      29.74S HX 104
EMPORIA        MOSUNNY   96  71  44 S20       29.80S HX 103
LAWRENCE       MOSUNNY   97  70  41 S18G24    29.78R HX 103
MANHATTAN      MOSUNNY  105  66  28 SW17      29.73S HX 110
MARYSVILLE     MOSUNNY  100  68  34 W8        29.73F HX 106
OLATHE IND     MOSUNNY   96  71  44 S22G28    29.81S HX 103
OLATHE EXE     MOSUNNY   93  72  50 S16G26    29.80S HX 101
SALINA         MOSUNNY  106  65  26 S23G29    29.73F HX 110
TOPEKA BILLARD MOSUNNY   99  69  37 S14G23    29.76S HX 105
TOPEKA FORBES  PTSUNNY   98  70  40 S17G24    29.77S HX 105
$$



USA.gov is the U.S. government's official web portal to all federal, state and local government web resources and services.